Погода в Константиновке

Россия / Республика Мордовия     54°28′19″N   45°22′26″E
темп.,
°C
ветер,
м/с
пор.,
м/с
влажн.,
%
обл.,
%
осадки,
мм/ч
давл.,
гПа
погр.,
м
15 апреля, чт
чт1500:00+11юв33773 0.0 102022
03:00+9юв22825 0.0 102010
06:00+8ююв22780 0.0 102014
09:00+14ююв34575 0.0 1019262
12:00+18юв223750 0.0 1018993
15:00+20всв22305 0.0 10181408
18:00+17св344225 0.0 101750
21:00+13всв355383 0.0 101869
16 апреля, пт
пт1600:00+11всв3459100 0.0 101851
03:00+9св367299 0.0 101995
06:00+8св51092100 0.0 1020255
09:00+11всв6984100 0.0 1021460
12:00+14всв677083 0.0 1022725
15:00+15всв676199 0.0 1022959
18:00+14всв5968100 0.0 1022559
21:00+10всв6118017 0.0 1023375
17 апреля, сб
сб1700:00+7всв5108453 0.0 1024306
03:00+6всв5108265 0.0 1024254
06:00+5всв511825 0.0 1025290
09:00+10всв79685 0.0 1025508
12:00+14всв795561 0.0 1024945
15:00+14в784724 0.0 10231213
18:00+12всв710505 0.0 1023726
21:00+9в613490 0.0 1023407
18 апреля, вс
вс1800:00+7всв614545 0.0 1023364
03:00+5всв512615 0.0 1023335
06:00+4всв5126996 0.0 1023358
09:00+8в6953100 0.0 1023761
12:00+10в4746100 0.1 10221312
15:00+11всв4743100 0.4 10221633
18:00+10юв4856100 0.0 1023443
21:00+7с376699 0.0 1023254
19 апреля, пн
пн1900:00+6всв7127694 0.0 1025586
03:00+4всв6126797 0.0 1025556
06:00+3всв7125799 0.0 1026597
09:00+5всв81051100 0.0 1027822
12:00+7всв81044100 0.0 10281446
15:00+7всв81035100 0.0 10281666
18:00+6всв7104093 0.0 10291509
21:00+3всв713425 0.0 1031593